Content
SEND FEEDBACK

Daily
Averages
Monthly
Summary
Netherlands

HAARLEM, NETHERLANDS


Home > Europe > Netherlands
Elevation: 62 feet     Latitude: 52 28N     Longitude: 004 35E

WEATHER
 
SELECT A DAY
Number of Records: 303,122;   Date Range: 7/1/96 - 8/27/14
 
SHARE

PRINT THIS DATA

[ ← Previous Day ]
WEATHER ALMANAC - FEBRUARY 9, 2013
[ Next Day → ]
[ °C ]   °F
Weather ElementAverageHighLow
Temperature31.7 °F35.6 °F (11:55 am)28 °F (1:00 am)
Dewpoint30.1 °F32 °F (1:55 pm)26 °F (1:00 am)
Humidity93.6 %100 % (3:25 am)74 % (1:00 pm)
Barometer30.07 in30.12 in (10:00 am)29.95 in (11:55 pm)
Wind Speed6.1 mph11.5 mph (9:55 pm)
Weather ElementAverage
Visibility5.5 mi
Wind DirectionS (176.9 °)

Weather ElementTotal
Precipitation---
Heating Degree Days33.2 (Base 65)
Averaged from 53 records on February 9, 2013
WEATHER CONDITIONS BREAKOUT
WIND DIRECTION BREAKOUT
WEATHER BY HOUR - FEBRUARY 9, 2013
[ °C ]   °F
Local TimeTemperatureDewpointHumidityBarometerVisibilityWind DirectionWind SpeedGust SpeedPrecipitationEventsConditions
12:55 AM30.2 °F28.4 °F93 %30.09 in6.2 miNNW (330°)4.6 mphPartly Cloudy
1:00 AM28.0 °F26.0 °F91 %30.10 in11.0 miNW (320°)4.5 mphPartly Cloudy
1:25 AM28.4 °F26.6 °F93 %30.09 in6.2 miNNW (330°)4.6 mphPartly Cloudy
1:55 AM28.4 °F26.6 °F93 %30.09 in6.2 miWNW (300°)2.3 mphScattered Clouds
2:25 AM30.2 °F28.4 °F93 %30.09 in6.2 miNW (320°)3.5 mphPartly Cloudy
2:55 AM28.4 °F26.6 °F93 %30.09 inNNW (330°)2.3 mphPartly Cloudy
3:25 AM28.4 °F28.4 °F100 %30.09 inWNW (300°)1.2 mphClear
3:55 AM28.4 °F28.4 °F100 %30.09 inNorth (360°)1.2 mphClear
4:00 AM29.0 °F29.0 °F100 %30.11 in6.0 miCalmOvercast
4:25 AM28.4 °F26.6 °F93 %30.09 in6.2 miVariable1.2 mphPartly Cloudy
4:55 AM28.4 °F26.6 °F93 %30.09 in6.2 miVariable1.2 mphPartly Cloudy
5:25 AM30.2 °F28.4 °F93 %30.09 in6.2 miWSW (250°)3.5 mphPartly Cloudy
5:55 AM30.2 °F28.4 °F93 %30.09 in6.2 miWest (280°)1.2 mphPartly Cloudy
6:25 AM30.2 °F28.4 °F93 %30.09 in6.2 miNorth (360°)1.2 mphPartly Cloudy
6:55 AM32.0 °F30.2 °F93 %30.09 in5.6 miVariable2.3 mph
7:00 AM31.0 °F31.0 °F97 %30.10 in5.0 miESE (110°)2.2 mphSnowSnow
7:25 AM30.2 °F30.2 °F100 %30.09 in6.2 miENE (60°)4.6 mphMostly Cloudy
7:55 AM32.0 °F28.4 °F87 %30.09 in6.2 miEast (90°)5.8 mphMostly Cloudy
8:25 AM30.2 °F30.2 °F100 %30.09 in6.2 miESE (110°)5.8 mphScattered Clouds
8:55 AM32.0 °F28.4 °F87 %30.09 in6.2 miSE (140°)5.8 mphPartly Cloudy
9:25 AM32.0 °F30.2 °F93 %30.09 in6.2 miSE (130°)8.1 mphPartly Cloudy
9:55 AM32.0 °F30.2 °F93 %30.09 in6.2 miSSE (150°)6.9 mphPartly Cloudy
10:00 AM32.0 °F30.0 °F88 %30.12 in11.0 miSSE (150°)8.9 mphMostly Cloudy
10:25 AM32.0 °F30.2 °F93 %30.09 in6.2 miSE (140°)8.1 mphSnowLight Snow Showers
10:55 AM32.0 °F30.2 °F93 %30.12 in6.2 miSSE (150°)8.1 mphPartly Cloudy
11:25 AM33.8 °F30.2 °F87 %30.09 in6.2 miSSE (150°)8.1 mphScattered Clouds
11:55 AM35.6 °F28.4 °F75 %30.09 in6.2 miSSE (160°)9.2 mphPartly Cloudy
12:25 PM35.6 °F30.2 °F81 %30.09 in6.2 miSSE (150°)9.2 mphPartly Cloudy
12:55 PM35.6 °F30.2 °F81 %30.09 in6.2 miSouth (170°)10.4 mphMostly Cloudy
1:00 PM35.0 °F30.0 °F74 %30.11 in22.0 miSouth (170°)8.9 mphPartly Cloudy
1:25 PM35.6 °F30.2 °F81 %30.09 in6.2 miSSE (150°)9.2 mphSnowLight Snow Grains
1:55 PM33.8 °F32.0 °F93 %30.06 in6.2 miSSE (150°)8.1 mphSnowLight Snow
2:25 PM33.8 °F32.0 °F93 %30.06 in2.8 miSE (130°)8.1 mphSnowSnow
2:55 PM33.8 °F32.0 °F93 %30.06 in0.9 miSSE (150°)5.8 mphSnowHeavy Snow
3:25 PM32.0 °F32.0 °F100 %30.06 in1.2 miSouth (170°)3.5 mphSnowSnow
3:55 PM32.0 °F32.0 °F100 %30.06 in1.6 miSSE (150°)4.6 mphSnowLight Snow
4:00 PM32.0 °F32.0 °F100 %30.07 in1.0 miSSE (160°)4.5 mphSnowLight Snow
4:55 PM33.8 °F32.0 °F93 %30.04 in5.0 miSouth (170°)2.3 mphSnowLight Snow Grains
5:25 PM33.8 °F32.0 °F93 %30.04 in5.6 miSouth (180°)5.8 mphSnowLight Snow
5:55 PM33.8 °F30.2 °F87 %30.04 in0.6 miSSW (200°)10.4 mphSnowSnow
6:25 PM32.0 °F32.0 °F100 %30.04 inSouth (180°)8.1 mphSnowLight Snow
6:55 PM32.0 °F32.0 °F100 %30.04 in3.1 miSouth (170°)6.9 mphSnowLight Snow
7:00 PM32.0 °F31.0 °F97 %30.06 in3.0 miSouth (170°)6.7 mphSnowLight Snow
7:25 PM32.0 °F32.0 °F100 %30.04 in3.1 miSSE (150°)8.1 mphSnowLight Snow
7:55 PM32.0 °F32.0 °F100 %30.04 in3.7 miSSE (150°)6.9 mphSnowLight Snow
8:25 PM32.0 °F32.0 °F100 %30.04 in3.1 miSSE (150°)8.1 mphSnowLight Snow
8:55 PM32.0 °F32.0 °F100 %30.01 in3.1 miSouth (170°)8.1 mphSnowSnow Grains
9:25 PM32.0 °F32.0 °F100 %30.01 in4.3 miSSE (160°)10.4 mphSnowLight Snow
9:55 PM32.0 °F30.2 °F93 %30.01 in4.3 miSSE (160°)11.5 mphSnowSnow Grains
10:00 PM32.0 °F31.0 °F94 %30.01 in7.0 miSSE (160°)11.2 mphRainDrizzle
10:25 PM32.0 °F32.0 °F100 %29.98 in5.0 miSSE (150°)9.2 mphOvercast
11:25 PM32.0 °F32.0 °F100 %29.98 in5.0 miSSE (150°)9.2 mphSnowLight Snow
11:55 PM32.0 °F32.0 °F100 %29.95 in4.3 miSSE (160°)10.4 mphSnowLight Snow
Hourly data recorded from EHAM, located miles away from Haarlem, Netherlands







STORIES FROM OUR PARTNERS